{"data":{"norad_id":60296,"intl_designator":"2024-132U","name":"STARLINK-32143","alt_names":[],"object_type":"PAYLOAD","status":"ACTIVE","operator":null,"country":"US","launch_date":"2024-07-28","launch_site_code":"AFETR","launch_vehicle":null,"mission":null,"orbit_class":"UNKNOWN","rcs_meters":null,"size_class":null,"mass_kg":null,"dimensions":null,"purposes":["comms"],"wikipedia_slug":null,"has_3d_model":false,"image_url":null,"decayed_at":null,"tle_current":{"epoch":"2026-05-25T04:33:00.387648Z","epoch_age_seconds":65480,"freshness":"FRESH","line1":"1 60296U 24132U   26145.18958782  .00000924  00000+0  41512-4 0  9992","line2":"2 60296  53.1613  57.0427 0000820 122.0989 238.0092 15.31702917103273","mean_motion":15.31702917,"eccentricity":8.2e-5,"inclination_deg":53.1613,"raan_deg":57.0427,"arg_perigee_deg":122.0989,"mean_anomaly_deg":238.0092,"bstar":4.1512e-5,"rev_number":10327,"period_min":94.013008920842,"perigee_km":470.16969261365,"apogee_km":471.29290701482,"semimajor_km":6848.8682998142,"source":"CELESTRAK","updated_at":"2026-05-25T13:38:19.225280Z"}}}